#timestamp,LO_Frequency,Hit,StdDev 
1611190815.2,286047012.9,N
1611190835.1,286047011.9,N
1611190836.0,286047011.9,N
1611190855.8,286047005.7,N
1611190875.6,286047000.4,N
1611190895.5,286047001.0,N
1611190915.3,286046999.1,N
1611190935.2,286047007.3,N
1611190955.9,286047013.3,N
1611190975.7,286047018.2,N
1611190995.6,286047011.8,N
1611191015.4,286047010.8,N
1611191035.2,286047009.3,N
1611191055.1,286047010.5,N
1611191056.0,286047010.5,N
1611191075.8,286047010.6,N
1611191095.7,286047004.8,N
1611191115.5,286046995.1,N
1611191135.3,286046990.2,N
1611191155.2,286046987.6,N
1611191175.0,286046985.3,N
1611191175.9,286046985.3,N
1611191195.7,286046986.1,N
1611191215.6,286046986.3,N
1611191235.4,286046992.2,N
1611191255.3,286046991.9,N
1611191275.1,286046999.6,N
1611191276.0,286046999.6,N
1611191295.8,286047008.2,N
1611191315.7,286046998.0,N
1611191335.5,286046994.0,N
1611191355.3,286046990.0,N
1611191375.2,286046991.6,N
1611191395.0,286046993.7,N
1611191395.9,286046993.7,N
1611191415.8,286046988.6,N
1611191435.6,286046987.3,N
1611191455.4,286046984.6,N
1611191475.3,286046980.4,N
1611191495.1,286046981.4,N
1611191515.8,286046978.5,N
1611191535.7,286046979.0,N
1611191555.5,286046984.1,N
1611191575.4,286046985.9,N
1611191595.2,286046985.1,N
1611191615.0,286046977.7,N
1611191615.9,286046977.7,Y
1611191635.8,286046987.5,P
1611191655.6,286046989.1,P
1611191675.5,286046994.8,P
1611191695.3,286046992.8,N
1611191715.1,286046991.9,Y
1611191735.9,286047008.3,P
1611191755.7,286047003.4,N
1611191775.6,286047004.0,N
1611191795.4,286047018.8,N
1611191815.2,286047018.5,N
1611191835.1,286047010.8,N
1611191836.0,286047010.8,N
1611191855.8,286047011.7,N
1611191875.7,286047012.8,N
1611191895.5,286047015.0,N
1611191915.3,286047019.7,N
1611191935.2,286047022.6,N
1611191955.0,286047024.9,Y
1611191955.9,286047024.9,P
1611191975.7,286047012.3,N
1611191995.6,286047003.0,N
1611192015.4,286047003.3,N
1611192035.3,286047006.3,N
1611192055.1,286047012.4,N
1611192075.8,286047019.7,N
1611192095.7,286047031.9,Y
1611192115.5,286047023.5,P
1611192135.4,286047026.7,P
1611192155.2,286047034.7,P
1611192175.0,286047036.6,Y
1611192175.9,286047036.6,P
1611192195.8,286047018.7,N
1611192215.6,286047019.0,N
1611192235.5,286047020.5,N
1611192255.3,286047018.8,N
1611192275.1,286047012.9,N
1611192295.9,286047009.3,N
1611192315.7,286047004.5,N
1611192335.6,286046998.8,N
1611192355.4,286046995.4,N
1611192375.2,286046988.1,N
1611192395.1,286046994.8,N
1611192396.0,286046994.8,N
1611192415.8,286047001.8,N
1611192435.7,286047005.3,N
1611192455.3,286047004.3,N
1611192475.2,286047002.2,N
1611192495.0,286047001.7,N
1611192495.9,286047001.7,N
1611192515.8,286047004.4,N
1611192535.6,286047004.0,N
1611192555.4,286047007.1,N
1611192575.3,286047001.4,N
1611192595.1,286046990.6,N
1611192615.9,286046993.0,N
1611192635.7,286046996.2,N
1611192655.5,286046990.3,N
1611192675.4,286046985.4,N
1611192695.2,286046984.5,N
1611192715.0,286046983.4,N
1611192715.9,286046983.4,N
1611192735.8,286046986.1,N
1611192755.6,286046982.1,N
1611192775.5,286046984.7,N
1611192795.3,286046980.7,N
1611192815.1,286046974.2,N
1611192835.9,286046970.4,Y
1611192855.7,286046974.0,P
1611192875.5,286046977.8,N
1611192895.4,286046983.2,N
1611192915.2,286046983.6,N
1611192935.1,286046980.4,N
1611192936.0,286046980.4,Y
1611192955.8,286046994.4,P
1611192975.6,286046992.0,N
1611192995.5,286046993.8,N
1611193015.3,286046999.1,N
1611193035.2,286046997.9,N
1611193055.9,286046999.8,N
1611193075.7,286047002.4,N
1611193095.6,286047003.8,N
1611193115.4,286047003.9,N
1611193135.2,286046999.3,N
1611193155.1,286046994.6,N
1611193156.0,286046994.6,N
1611193175.8,286046991.2,N
1611193195.7,286046992.3,N
1611193215.5,286046994.4,N
1611193235.3,286046998.1,N
1611193255.2,286047002.7,N
1611193275.0,286047001.3,N
1611193275.9,286047001.3,N
1611193295.8,286047012.9,N
1611193315.6,286047007.3,N
1611193335.4,286047014.0,N
1611193355.3,286047014.3,N
1611193375.1,286047007.0,N
1611193395.8,286046997.5,N
1611193415.7,286046997.1,N
1611193435.5,286046993.6,N
1611193455.4,286046996.4,N
1611193475.2,286046996.2,N
1611193495.0,286046998.4,N
1611193495.9,286046998.4,N
1611193515.8,286047001.5,N
1611193535.6,286047000.7,N
1611193555.5,286046999.7,N
1611193605.3,286046997.5,E
1611193615.2,286047000.4,N
1611193635.1,286047006.4,P
1611193636.0,286047006.4,N
1611193655.8,286047006.6,N
1611193675.7,286047006.6,N
1611193695.5,286047010.4,Y
1611193715.3,286047000.9,P
1611193735.2,286046998.2,N
1611193755.0,286046991.6,N
1611193755.9,286046991.6,N
1611193775.8,286046990.7,N
1611193795.6,286046990.1,N
1611193815.4,286046999.8,N
1611193835.3,286046997.2,N
1611193855.1,286047000.6,N
1611193875.9,286047013.4,N
1611193895.7,286047005.1,N
1611193915.5,286047000.8,N
1611193935.4,286046997.3,N
1611193955.2,286046990.3,N
1611193975.0,286046998.7,N
1611193976.0,286046998.7,N
1611193995.8,286047004.0,N
1611194015.6,286046996.6,N
1611194035.5,286047002.3,N
1611194055.3,286047002.8,N
1611194075.1,286046995.3,N
1611194095.9,286046988.6,N
1611194115.7,286046990.4,N
1611194135.6,286047001.1,N
1611194155.4,286046999.0,N
1611194175.2,286046998.2,N
1611194195.1,286047004.6,N
1611194196.0,286047004.6,N
1611194215.8,286047007.8,N
1611194235.7,286047002.8,N
1611194255.5,286047001.2,N
1611194275.3,286046995.0,N
1611194295.2,286047000.5,N
1611194315.0,286047007.5,N
1611194315.9,286047007.5,N
1611194335.8,286047009.5,N
1611194355.6,286047015.3,N
1611194375.4,286047020.5,Y
1611194395.3,286047011.2,P
